Location: Praha
(50.0830°N, 14.4670°E)
Time: 22:21:05
(UTC+01:00)

ISS - Pass Details

Date: 19 November 2021
Orbit: 417 x 423 km, 51.6° (Epoch: 28 November)

Event Time Altitude Azimuth Distance (km) Brightness Sun altitude
Rises 16:55:02 0° 154° (SSE) 2,368 0.0 -6.9°
Enters shadow 16:58:40 - 113° (ESE) 2,180 -0.5 -7.4°
Exits shadow 17:33:33 -66° 30° (NNE) 12,146 3.6 -12.7°
Reaches altitude 10° 18:30:36 10° 197° (SSW) 1,507 -0.7 -21.7°
